User: anonymous   Login
Location: Fort Wayne
(41.1310°N, 85.1290°W)
Time: 19:46:04
(UTC-04:00)
Language:

Tiros 1 despin weight - Orbit

View from above orbital plane
View from above orbital plane
View from above satellite
View from above satellite

Ground track
Ground track

The orbit data is extracted from the following two-line orbital elements,

1 00115U 60002D   17292.35579692  .00000210  00000-0  52334-4 0  9996
2 00115  48.1666 267.2808 0035654 285.4166  74.2809 14.83172362 68650
Epoch (UTC): 19 October 2017 08:32:20
Eccentricity: 0.0035654
inclination: 48.1666°
perigee height: 594 km
apogee height: 644 km
right ascension of ascending node: 267.2808°
argument of perigee: 285.4166°
revolutions per day: 14.83172362
mean anomaly at epoch: 74.2809°
orbit number at epoch: 6865

The dashed part of the orbit path shows where the satellite is in the earth's shadow,  

DLR